Time,TemperatureF,DewpointF,PressureIn,WindDirection,WindDirectionDegrees,WindSpeedMPH,WindSpeedGustMPH,Humidity,HourlyPrecipIn,Conditions,Clouds,dailyrainin,SoftwareType,DateUTC
2013-08-01 00:00:00,55.0,52.7,30.01,WNW,292,0.0,-999.0,92,-99.99,,,0.00,Acu-Link.com,2013-08-01 04:00:00,
2013-08-01 00:15:00,54.5,52.2,30.00,NE,45,0.0,-999.0,92,-99.99,,,0.00,Acu-Link.com,2013-08-01 04:15:00,
2013-08-01 00:30:00,54.3,52.3,30.00,NNE,22,0.0,-999.0,93,-99.99,,,0.00,Acu-Link.com,2013-08-01 04:30:00,
2013-08-01 00:45:00,53.8,51.8,30.00,ENE,67,0.0,-999.0,93,-99.99,,,0.00,Acu-Link.com,2013-08-01 04:45:00,
2013-08-01 01:01:00,53.6,51.6,30.01,WNW,292,0.0,-999.0,93,-99.99,,,0.00,Acu-Link.com,2013-08-01 05:01:00,
2013-08-01 01:16:00,53.2,51.2,30.00,NE,45,0.0,-999.0,93,-99.99,,,0.00,Acu-Link.com,2013-08-01 05:16:00,
2013-08-01 01:46:00,52.9,51.5,30.00,NNE,22,0.0,-999.0,95,-99.99,,,0.00,Acu-Link.com,2013-08-01 05:46:00,
2013-08-01 02:17:00,52.2,50.8,30.00,North,0,0.0,-999.0,95,-99.99,,,0.00,Acu-Link.com,2013-08-01 06:17:00,
2013-08-01 02:32:00,52.2,51.1,30.00,NNW,337,0.0,-999.0,96,-99.99,,,0.00,Acu-Link.com,2013-08-01 06:32:00,
2013-08-01 02:47:00,51.8,50.7,29.99,NNE,22,0.0,-999.0,96,-99.99,,,0.00,Acu-Link.com,2013-08-01 06:47:00,
2013-08-01 03:02:00,52.0,51.5,30.00,NE,45,0.0,-999.0,98,-99.99,,,0.00,Acu-Link.com,2013-08-01 07:02:00,
2013-08-01 03:18:00,52.2,51.7,30.00,NNW,337,0.0,-999.0,98,-99.99,,,0.00,Acu-Link.com,2013-08-01 07:18:00,
2013-08-01 03:33:00,51.8,51.3,29.99,NE,45,0.0,-999.0,98,-99.99,,,0.00,Acu-Link.com,2013-08-01 07:33:00,
2013-08-01 03:48:00,51.6,51.1,29.98,ENE,67,0.0,-999.0,98,-99.99,,,0.00,Acu-Link.com,2013-08-01 07:48:00,
2013-08-01 04:03:00,51.1,50.6,29.98,North,0,0.0,-999.0,98,-99.99,,,0.00,Acu-Link.com,2013-08-01 08:03:00,
2013-08-01 04:19:00,51.1,50.6,29.98,NE,45,0.0,-999.0,98,-99.99,,,0.00,Acu-Link.com,2013-08-01 08:19:00,
2013-08-01 04:34:00,51.3,50.8,29.99,NNE,22,0.0,-999.0,98,-99.99,,,0.00,Acu-Link.com,2013-08-01 08:34:00,
2013-08-01 05:04:00,51.1,50.6,29.98,NNE,22,0.0,-999.0,98,-99.99,,,0.00,Acu-Link.com,2013-08-01 09:04:00,
2013-08-01 05:50:00,50.9,50.4,29.98,North,0,0.0,-999.0,98,-99.99,,,0.00,Acu-Link.com,2013-08-01 09:50:00,
2013-08-01 06:20:00,53.1,52.8,29.99,WNW,292,0.0,-999.0,99,-99.99,,,0.00,Acu-Link.com,2013-08-01 10:20:00,
2013-08-01 06:35:00,54.0,53.7,29.98,NNE,22,0.0,-999.0,99,-99.99,,,0.00,Acu-Link.com,2013-08-01 10:35:00,
2013-08-01 07:06:00,61.3,58.6,29.97,ESE,112,1.7,-999.0,91,-99.99,,,0.00,Acu-Link.com,2013-08-01 11:06:00,
2013-08-01 07:21:00,66.4,58.2,29.97,NE,45,1.7,-999.0,75,-99.99,,,0.00,Acu-Link.com,2013-08-01 11:21:00,
2013-08-01 08:06:00,64.9,57.1,29.96,WSW,247,2.2,-999.0,76,-99.99,,,0.00,Acu-Link.com,2013-08-01 12:06:00,
2013-08-01 08:22:00,66.9,57.6,29.95,SE,135,2.7,-999.0,72,-99.99,,,0.00,Acu-Link.com,2013-08-01 12:22:00,
2013-08-01 08:37:00,68.2,57.6,29.95,SW,225,5.3,-999.0,69,-99.99,,,0.00,Acu-Link.com,2013-08-01 12:37:00,
2013-08-01 08:52:00,69.3,58.3,29.94,NE,45,2.7,-999.0,68,-99.99,,,0.00,Acu-Link.com,2013-08-01 12:52:00,
2013-08-01 09:07:00,70.7,58.3,29.94,North,0,0.0,-999.0,65,-99.99,,,0.00,Acu-Link.com,2013-08-01 13:07:00,
2013-08-01 09:38:00,72.3,59.0,29.92,West,270,1.7,-999.0,63,-99.99,,,0.00,Acu-Link.com,2013-08-01 13:38:00,
2013-08-01 09:53:00,72.9,59.1,29.92,East,90,5.3,-999.0,62,-99.99,,,0.00,Acu-Link.com,2013-08-01 13:53:00,
2013-08-01 10:08:00,73.2,58.5,29.91,SSE,157,2.7,-999.0,60,-99.99,,,0.00,Acu-Link.com,2013-08-01 14:08:00,
2013-08-01 10:39:00,75.0,57.2,29.90,ESE,112,2.2,-999.0,54,-99.99,,,0.00,Acu-Link.com,2013-08-01 14:39:00,
2013-08-01 10:54:00,73.8,56.1,29.90,ESE,112,3.2,-999.0,54,-99.99,,,0.00,Acu-Link.com,2013-08-01 14:54:00,
2013-08-01 11:11:00,74.7,55.9,29.90,SSW,202,5.8,-999.0,52,-99.99,,,0.00,Acu-Link.com,2013-08-01 15:11:00,
2013-08-01 11:26:00,73.2,57.0,29.89,South,180,2.2,-999.0,57,-99.99,,,0.00,Acu-Link.com,2013-08-01 15:26:00,
2013-08-01 11:56:00,75.6,57.8,29.87,West,270,2.7,-999.0,54,-99.99,,,0.00,Acu-Link.com,2013-08-01 15:56:00,
2013-08-01 12:27:00,77.5,57.4,29.85,South,180,2.2,-999.0,50,-99.99,,,0.00,Acu-Link.com,2013-08-01 16:27:00,
2013-08-01 12:57:00,76.3,56.3,29.85,ESE,112,4.7,-999.0,50,-99.99,,,0.00,Acu-Link.com,2013-08-01 16:57:00,
2013-08-01 13:58:00,77.7,57.6,29.82,West,270,3.2,-999.0,50,-99.99,,,0.01,Acu-Link.com,2013-08-01 17:58:00,
2013-08-01 14:14:00,77.2,57.7,29.82,SW,225,3.7,-999.0,51,-99.99,,,0.01,Acu-Link.com,2013-08-01 18:14:00,
2013-08-01 15:00:00,78.6,58.9,29.81,SW,225,5.8,-999.0,51,-99.99,,,0.01,Acu-Link.com,2013-08-01 19:00:00,
2013-08-01 15:30:00,77.2,58.2,29.80,NNE,22,2.7,-999.0,52,-99.99,,,0.01,Acu-Link.com,2013-08-01 19:30:00,
2013-08-01 15:45:00,77.0,58.0,29.81,South,180,0.0,-999.0,52,-99.99,,,0.01,Acu-Link.com,2013-08-01 19:45:00,
2013-08-01 16:16:00,76.5,59.1,29.79,SSW,202,1.1,-999.0,55,-99.99,,,0.01,Acu-Link.com,2013-08-01 20:16:00,
2013-08-01 16:31:00,77.2,59.2,29.78,WSW,247,4.7,-999.0,54,-99.99,,,0.01,Acu-Link.com,2013-08-01 20:31:00,
2013-08-01 16:48:00,75.0,58.7,29.79,North,0,3.2,-999.0,57,-99.99,,,0.01,Acu-Link.com,2013-08-01 20:48:00,
2013-08-01 17:03:00,74.1,58.8,29.79,West,270,2.2,-999.0,59,-99.99,,,0.01,Acu-Link.com,2013-08-01 21:03:00,
2013-08-01 17:18:00,73.8,60.0,29.79,SW,225,2.7,-999.0,62,-99.99,,,0.01,Acu-Link.com,2013-08-01 21:18:00,
2013-08-01 17:34:00,72.7,59.8,29.79,NNW,337,2.2,-999.0,64,-99.99,,,0.01,Acu-Link.com,2013-08-01 21:34:00,
2013-08-01 18:20:00,70.2,58.7,29.80,West,270,5.3,-999.0,67,-99.99,,,0.01,Acu-Link.com,2013-08-01 22:20:00,
2013-08-01 18:35:00,69.4,58.8,29.80,West,270,2.7,-999.0,69,-99.99,,,0.01,Acu-Link.com,2013-08-01 22:35:00,
2013-08-01 18:50:00,69.3,59.1,29.80,SW,225,1.7,-999.0,70,-99.99,,,0.01,Acu-Link.com,2013-08-01 22:50:00,
2013-08-01 19:05:00,68.9,59.9,29.80,SSW,202,0.0,-999.0,73,-99.99,,,0.01,Acu-Link.com,2013-08-01 23:05:00,
2013-08-01 19:21:00,68.2,58.8,29.80,West,270,1.7,-999.0,72,-99.99,,,0.01,Acu-Link.com,2013-08-01 23:21:00,
2013-08-01 19:36:00,67.8,58.8,29.79,SSW,202,2.7,-999.0,73,-99.99,,,0.01,Acu-Link.com,2013-08-01 23:36:00,
2013-08-01 20:06:00,67.1,58.1,29.82,SSE,157,1.7,-999.0,73,-99.99,,,0.01,Acu-Link.com,2013-08-02 00:06:00,
2013-08-01 20:21:00,66.7,57.8,29.79,West,270,5.3,-999.0,73,-99.99,,,0.01,Acu-Link.com,2013-08-02 00:21:00,
2013-08-01 20:37:00,66.2,57.7,29.81,South,180,2.2,-999.0,74,-99.99,,,0.01,Acu-Link.com,2013-08-02 00:37:00,
2013-08-01 20:52:00,65.5,57.4,29.80,NW,315,2.2,-999.0,75,-99.99,,,0.01,Acu-Link.com,2013-08-02 00:52:00,
2013-08-01 21:07:00,64.4,58.1,29.81,SW,225,5.3,-999.0,80,-99.99,,,0.01,Acu-Link.com,2013-08-02 01:07:00,
2013-08-01 21:23:00,63.7,58.4,29.81,South,180,2.2,-999.0,83,-99.99,,,0.01,Acu-Link.com,2013-08-02 01:23:00,
2013-08-01 21:38:00,63.5,58.9,29.79,East,90,2.2,-999.0,85,-99.99,,,0.01,Acu-Link.com,2013-08-02 01:38:00,
2013-08-01 22:08:00,63.1,58.5,29.80,North,0,2.2,-999.0,85,-99.99,,,0.01,Acu-Link.com,2013-08-02 02:08:00,
2013-08-01 22:23:00,63.0,58.7,29.79,NW,315,1.7,-999.0,86,-99.99,,,0.01,Acu-Link.com,2013-08-02 02:23:00,
2013-08-01 22:39:00,63.0,59.1,29.79,WNW,292,3.2,-999.0,87,-99.99,,,0.01,Acu-Link.com,2013-08-02 02:39:00,
2013-08-01 22:54:00,62.8,59.2,29.79,SW,225,3.2,-999.0,88,-99.99,,,0.01,Acu-Link.com,2013-08-02 02:54:00,
2013-08-01 23:09:00,62.8,59.2,29.78,SW,225,0.0,-999.0,88,-99.99,,,0.01,Acu-Link.com,2013-08-02 03:09:00,
2013-08-01 23:39:00,62.8,59.2,29.79,SE,135,0.0,-999.0,88,-99.99,,,0.01,Acu-Link.com,2013-08-02 03:39:00,
2013-08-01 23:55:00,62.8,58.9,29.79,South,180,0.0,-999.0,87,-99.99,,,0.01,Acu-Link.com,2013-08-02 03:55:00,